When you browse on this site, cookies collect data to enhance your experience and personalize the content and advertising you see.
Visit our Privacy Policy to learn more. By continuing to use the site, you agree to this use of cookies and data.
  • In Hungary
  • List of Countries
  • For 7 days
  • Water Temperature
  • Satellite Maps
  • Weather Map
  • News
  • Weather Widgets
  • user-avatar
    Login

    Hourly Weather Kosina

    Today, 12 December, Wednesday

    Time Temperature Precipitation Wind Pressure Humidity
    00:00 0°C° 0 mm 1 mps 742 mmHg 87%
    01:00 0°C° 0 mm 1 mps 742 mmHg 88%
    02:00 0°C° 0 mm 1 mps 743 mmHg 88%
    03:00 0°C° 0 mm 1 mps 743 mmHg 88%
    04:00 0°C° 0 mm 1 mps 743 mmHg 88%
    05:00 0°C° 0 mm 1 mps 743 mmHg 88%
    06:00 0°C° 0 mm 1 mps 744 mmHg 88%
    07:00 0°C° 0 mm 1 mps 744 mmHg 87%
    08:00 +1°C° 0 mm 1 mps 744 mmHg 84%
    09:00 +1°C° 0 mm 1 mps 745 mmHg 81%
    10:00 +2°C° 0 mm 1 mps 745 mmHg 78%
    11:00 +2°C° 0 mm 1 mps 745 mmHg 77%
    12:00 +3°C° 0 mm 1 mps 745 mmHg 75%
    13:00 +3°C° 0 mm 1 mps 745 mmHg 74%
    14:00 +2°C° 0 mm 1 mps 746 mmHg 78%
    15:00 +1°C° 0 mm 1 mps 746 mmHg 82%
    16:00 -2°C° 0 mm 2 mps 746 mmHg 86%
    17:00 -2°C° 0 mm 2 mps 746 mmHg 87%
    18:00 -2°C° 0 mm 2 mps 746 mmHg 88%
    19:00 -2°C° 0 mm 2 mps 747 mmHg 89%
    20:00 -2°C° 0 mm 2 mps 747 mmHg 90%
    21:00 -2°C° 0 mm 2 mps 747 mmHg 91%
    22:00 -2°C° 0 mm 2 mps 747 mmHg 92%
    23:00 -2°C° 0.1 mm 2 mps 747 mmHg 92%

    Tomorrow, 13 December, Thursday

    Time Temperature Precipitation Wind Pressure Humidity
    00:00 -2°C° 0.1 mm 2 mps 747 mmHg 92%
    01:00 -2°C° 0.1 mm 2 mps 747 mmHg 92%
    02:00 -1°C° 0.1 mm 3 mps 747 mmHg 92%
    03:00 -1°C° 0.1 mm 3 mps 747 mmHg 92%
    04:00 -1°C° 0.1 mm 3 mps 747 mmHg 92%
    05:00 -1°C° 0.2 mm 3 mps 747 mmHg 92%
    06:00 -1°C° 0.2 mm 3 mps 747 mmHg 92%
    07:00 -1°C° 0.2 mm 3 mps 747 mmHg 92%
    08:00 -1°C° 0.1 mm 3 mps 747 mmHg 90%
    09:00 -1°C° 0.1 mm 3 mps 747 mmHg 88%
    10:00 -1°C° 0.1 mm 3 mps 747 mmHg 87%
    11:00 -1°C° 0.1 mm 3 mps 747 mmHg 85%
    12:00 -1°C° 0.1 mm 3 mps 747 mmHg 83%
    13:00 0°C° 0.1 mm 3 mps 747 mmHg 82%
    14:00 -1°C° 0 mm 3 mps 747 mmHg 83%
    15:00 -1°C° 0 mm 2 mps 747 mmHg 85%
    16:00 -1°C° 0 mm 2 mps 747 mmHg 86%
    17:00 -1°C° 0 mm 2 mps 747 mmHg 87%
    18:00 -2°C° 0 mm 2 mps 747 mmHg 87%
    19:00 -2°C° 0 mm 2 mps 747 mmHg 88%
    20:00 -2°C° 0 mm 2 mps 748 mmHg 89%
    21:00 0°C° 0 mm 1 mps 748 mmHg 90%
    22:00 0°C° 0 mm 1 mps 748 mmHg 90%
    23:00 -1°C° 0 mm 1 mps 748 mmHg 91%

    Day after tomorrow, 14 December, Friday

    Time Temperature Precipitation Wind Pressure Humidity
    00:00 -1°C° 0 mm 1 mps 748 mmHg 91%
    01:00 -1°C° 0 mm 1 mps 748 mmHg 91%
    02:00 -1°C° 0 mm 1 mps 748 mmHg 92%
    03:00 -1°C° 0 mm 1 mps 748 mmHg 92%
    04:00 -1°C° 0 mm 1 mps 748 mmHg 92%
    05:00 -1°C° 0 mm 1 mps 748 mmHg 92%
    06:00 -1°C° 0 mm 1 mps 748 mmHg 92%
    07:00 -2°C° 0 mm 1 mps 749 mmHg 92%
    08:00 -1°C° 0 mm 1 mps 749 mmHg 89%
    09:00 -1°C° 0 mm 1 mps 749 mmHg 86%
    10:00 0°C° 0 mm 1 mps 749 mmHg 83%
    11:00 0°C° 0 mm 1 mps 749 mmHg 81%
    12:00 +1°C° 0 mm 1 mps 749 mmHg 80%
    13:00 +1°C° 0 mm 1 mps 749 mmHg 78%
    14:00 +1°C° 0 mm 1 mps 750 mmHg 81%
    15:00 0°C° 0 mm 1 mps 750 mmHg 83%
    16:00 0°C° 0 mm 1 mps 750 mmHg 86%
    17:00 0°C° 0 mm 1 mps 750 mmHg 87%
    18:00 0°C° 0 mm 1 mps 750 mmHg 89%
    19:00 0°C° 0 mm 1 mps 751 mmHg 91%
    20:00 0°C° 0 mm 1 mps 751 mmHg 91%
    21:00 0°C° 0 mm 1 mps 751 mmHg 91%
    22:00 -2°C° 0 mm 2 mps 751 mmHg 92%
    23:00 -2°C° 0 mm 2 mps 751 mmHg 91%

    15 December, Saturday

    Time Temperature Precipitation Wind Pressure Humidity
    00:00 -3°C° 0 mm 2 mps 751 mmHg 91%
    01:00 -3°C° 0 mm 2 mps 751 mmHg 91%
    02:00 -3°C° 0 mm 2 mps 751 mmHg 91%
    03:00 -3°C° 0 mm 2 mps 751 mmHg 90%
    04:00 -3°C° 0 mm 2 mps 751 mmHg 90%
    05:00 -4°C° 0 mm 2 mps 751 mmHg 90%
    06:00 -4°C° 0 mm 2 mps 751 mmHg 89%
    07:00 -5°C° 0 mm 3 mps 751 mmHg 88%
    08:00 -4°C° 0 mm 3 mps 752 mmHg 86%
    09:00 -4°C° 0 mm 3 mps 752 mmHg 83%
    10:00 -3°C° 0 mm 4 mps 752 mmHg 80%
    11:00 -3°C° 0 mm 4 mps 752 mmHg 79%
    12:00 -3°C° 0 mm 4 mps 752 mmHg 78%
    13:00 -3°C° 0 mm 4 mps 752 mmHg 76%
    14:00 -4°C° 0 mm 5 mps 752 mmHg 77%
    15:00 -4°C° 0 mm 5 mps 752 mmHg 78%
    16:00 -5°C° 0 mm 5 mps 752 mmHg 78%
    17:00 -5°C° 0 mm 5 mps 752 mmHg 78%
    18:00 -5°C° 0 mm 5 mps 752 mmHg 77%
    19:00 -5°C° 0 mm 5 mps 752 mmHg 77%
    20:00 -4°C° 0 mm 5 mps 752 mmHg 77%
    21:00 -4°C° 0 mm 5 mps 752 mmHg 78%
    22:00 -4°C° 0 mm 5 mps 752 mmHg 78%
    23:00 -4°C° 0 mm 5 mps 752 mmHg 79%

    16 December, Sunday

    Time Temperature Precipitation Wind Pressure Humidity
    00:00 -4°C° 0 mm 5 mps 752 mmHg 81%
    01:00 -4°C° 0 mm 5 mps 752 mmHg 82%
    02:00 -4°C° 0.1 mm 5 mps 752 mmHg 83%
    03:00 -4°C° 0.1 mm 5 mps 751 mmHg 84%
    04:00 -4°C° 0.1 mm 5 mps 751 mmHg 85%
    05:00 -4°C° 0.1 mm 5 mps 751 mmHg 85%
    06:00 -5°C° 0.1 mm 5 mps 751 mmHg 85%
    07:00 -5°C° 0.1 mm 5 mps 751 mmHg 86%
    08:00 -4°C° 0.1 mm 5 mps 751 mmHg 85%
    09:00 -4°C° 0.1 mm 5 mps 751 mmHg 85%
    10:00 -3°C° 0.1 mm 4 mps 751 mmHg 84%
    11:00 -3°C° 0 mm 4 mps 751 mmHg 83%
    12:00 -2°C° 0 mm 4 mps 750 mmHg 83%
    13:00 -1°C° 0 mm 3 mps 750 mmHg 82%
    14:00 -2°C° 0 mm 3 mps 750 mmHg 85%
    15:00 -2°C° 0 mm 3 mps 749 mmHg 87%
    16:00 -4°C° 0 mm 3 mps 749 mmHg 90%
    17:00 -4°C° 0 mm 3 mps 749 mmHg 90%
    18:00 -4°C° 0 mm 3 mps 749 mmHg 91%
    19:00 -4°C° 0 mm 3 mps 749 mmHg 91%
    20:00 -3°C° 0 mm 4 mps 749 mmHg 90%
    21:00 -3°C° 0 mm 4 mps 749 mmHg 89%
    22:00 -3°C° 0 mm 4 mps 749 mmHg 88%
    23:00 -2°C° 0 mm 4 mps 748 mmHg 86%

    17 December, Monday

    Time Temperature Precipitation Wind Pressure Humidity
    00:00 -2°C° 0 mm 4 mps 748 mmHg 84%
    01:00 -2°C° 0 mm 4 mps 748 mmHg 82%
    02:00 -2°C° 0 mm 4 mps 748 mmHg 82%
    03:00 -2°C° 0 mm 5 mps 747 mmHg 82%
    04:00 -2°C° 0 mm 5 mps 747 mmHg 81%
    05:00 -2°C° 0 mm 5 mps 747 mmHg 82%
    06:00 -2°C° 0 mm 5 mps 747 mmHg 82%
    07:00 -2°C° 0 mm 5 mps 747 mmHg 82%
    08:00 -2°C° 0.1 mm 5 mps 747 mmHg 82%
    09:00 -2°C° 0.1 mm 5 mps 748 mmHg 82%
    10:00 -1°C° 0.1 mm 5 mps 748 mmHg 81%
    11:00 -1°C° 0.5 mm 4 mps 748 mmHg 84%
    12:00 -1°C° 0.5 mm 4 mps 748 mmHg 87%
    13:00 -1°C° 0.5 mm 4 mps 747 mmHg 90%
    14:00 0°C° 0.3 mm 3 mps 747 mmHg 90%
    15:00 0°C° 0.3 mm 3 mps 747 mmHg 91%
    16:00 -1°C° 0.3 mm 2 mps 747 mmHg 91%
    17:00 -1°C° 0 mm 2 mps 747 mmHg 91%
    18:00 -1°C° 0 mm 2 mps 747 mmHg 92%
    19:00 -1°C° 0 mm 2 mps 747 mmHg 92%
    20:00 +1°C° 0 mm 1 mps 747 mmHg 92%
    21:00 +1°C° 0 mm 1 mps 747 mmHg 92%
    22:00 0°C° 0 mm 1 mps 747 mmHg 92%
    23:00 0°C° 0 mm 1 mps 747 mmHg 92%
    Show more